Lid_Strength_Index
7 6 7 7 7 7 7 7 8 7 7 6 5 6 5 5 5 5 4 4 4 3 3 2 2 2 1 1 1 0 0 1 1 0 -0 -0 -0 -0 -0 -0 -0 -0 -0 -0
7 7 7 7 7 7 7 7 7 7 7 4 4 4 5 5 5 5 4 4 3 3 2 2 2 2 1 1 1 0 1 1 0 0 0 0 0 0 0 0 0 -0 0 0
9 7 7 8 7 7 6 6 6 7 6 5 6 6 5 5 4 4 4 4 3 3 2 2 2 1 2 1 1 1 1 1 1 0 1 1 0 0 1 1 0 0 0 -0
9 8 12 7 5 5 6 6 5 5 5 5 5 4 4 3 4 4 4 3 3 3 2 2 1 1 1 1 1 1 1 1 1 1 1 0 0 1 0 0 0 0 0 -0
10 10 8 7 6 6 6 7 6 6 5 5 4 4 5 3 3 3 3 3 3 2 2 2 2 1 1 1 1 1 1 1 1 1 1 1 1 0 -0 0 0 0 -0 -0
9 11 12 7 6 5 5 9 6 6 6 6 5 7 6 3 3 3 2 2 2 2 2 2 2 1 2 2 2 2 1 1 0 0 0 0 0 0 -0 -0 0 0 -0 -0
9 10 8 6 5 5 10 9 5 5 5 5 6 5 3 3 3 2 2 2 2 2 2 2 1 1 2 2 2 1 0 0 0 -0 0 -0 -0 -0 -0 -0 -0 0 0 -0
8 10 11 5 6 8 7 5 5 5 4 5 4 4 3 3 3 3 3 2 2 2 2 2 1 1 2 2 1 0 0 0 0 0 0 0 -0 -0 -0 -0 0 0 0 0
9 9 5 5 5 4 4 5 4 4 4 4 4 4 3 3 3 3 2 2 2 2 2 2 1 1 2 1 0 0 1 1 0 0 -0 -0 0 0 1 0 1 1 1 1
8 6 6 6 5 5 5 5 5 4 3 3 4 3 3 3 3 3 3 3 2 2 3 2 1 1 1 1 0 1 1 1 1 1 1 0 0 0 1 1 1 1 1 1
7 6 5 4 4 5 5 5 5 4 4 4 3 3 3 3 3 2 2 2 2 2 2 2 2 1 1 0 0 1 1 1 1 1 1 1 0 1 0 0 1 1 1 1
7 5 5 5 5 5 5 5 4 5 5 4 3 3 2 3 2 2 2 2 2 2 2 2 1 1 1 0 0 1 1 1 1 1 1 1 1 1 6 6 7 7 7 5
7 5 5 5 5 6 5 5 5 4 5 5 4 3 3 2 2 3 2 2 2 2 2 2 2 2 0 0 0 1 1 1 1 1 1 1 1 1 2 4 7 9 9 11
4 4 5 5 6 6 6 5 5 5 5 4 4 3 2 2 2 2 2 2 2 2 2 2 2 1 0 0 0 0 0 3 1 1 1 1 1 1 1 2 3 3 7 6
4 3 3 4 4 4 5 6 6 6 5 5 3 3 2 2 2 2 2 2 2 2 2 2 2 2 0 0 0 1 1 1 0 0 0 1 0 0 0 1 2 3 3 6
4 3 3 3 3 3 3 3 7 7 6 5 4 3 2 2 2 2 2 2 3 3 2 2 2 1 0 -0 0 0 2 3 2 0 1 1 1 1 1 1 2 4 4 4
5 5 3 3 3 3 3 3 3 3 5 4 3 2 2 2 2 2 2 2 2 2 2 2 2 1 -0 -0 0 1 2 2 2 0 1 1 1 1 2 3 4 4 4 5
4 3 3 2 3 3 3 2 2 2 2 2 2 2 2 3 3 3 3 2 2 2 1 3 2 1 0 -0 -0 0 2 2 1 1 1 1 1 2 3 4 4 4 5 5
4 4 3 2 2 2 2 2 2 2 2 2 3 3 2 2 2 3 2 3 3 3 3 2 3 1 1 0 0 1 2 3 2 1 1 3 2 3 4 4 4 4 4 5
4 4 3 2 2 2 2 2 2 2 2 2 3 3 3 3 3 3 3 3 2 3 3 2 1 1 1 1 1 2 2 3 3 3 3 3 3 4 4 6 4 4 4 3
4 4 3 3 3 2 2 1 2 2 2 2 2 3 3 3 3 3 3 4 3 4 3 3 3 2 2 2 2 3 3 3 3 4 4 4 4 4 4 4 4 3 2 1
4 4 4 3 3 2 2 1 2 2 2 2 2 2 2 3 3 3 2 2 3 5 3 2 3 3 3 3 3 3 4 4 4 4 4 4 4 4 4 4 3 1 1 1
4 4 3 3 3 3 2 2 2 2 2 2 2 2 3 3 3 4 4 2 2 3 2 2 4 4 4 2 2 3 4 4 4 4 4 4 4 3 3 2 0 1 1 1
4 3 3 3 3 2 3 2 2 1 1 2 1 2 4 3 3 2 2 5 6 4 2 3 4 5 4 1 2 2 3 3 3 3 3 7 3 3 2 1 0 -0 -0 1
4 3 3 3 3 3 2 2 2 2 2 2 2 2 4 1 2 3 3 4 7 3 2 6 6 6 2 1 2 2 3 3 3 3 3 3 3 1 1 0 -0 -0 -0 -0
5 4 3 3 3 2 2 2 2 2 2 3 3 3 2 1 1 3 3 5 3 4 3 4 3 2 1 2 2 2 3 3 3 2 3 2 2 1 0 -0 -0 -1 -0 0
5 5 3 3 2 2 2 1 2 3 2 3 4 4 2 3 2 4 5 4 4 2 3 4 4 3 2 3 2 3 2 2 4 2 2 1 0 -0 -0 -1 -0 -0 -0 0